User: anonymous
Location: Vancouver
(49.2500°N, 123.1330°W)
Time: 06:52:55
(UTC-07:00)
Language:

Cosmos 676 Rocket - Orbit

View from above orbital plane
View from above orbital plane
View from above satellite
View from above satellite

Ground track
Ground track

The orbit data is extracted from the following two-line orbital elements,

1 07434U 74071B   14212.80789049  .00000181  00000-0  70686-4 0  2705
2 07434 074.0500 344.4026 0020233 156.7521 353.7780 14.36263297 85746
Epoch (UTC): 31 July 2014 19:23:21
Eccentricity: 0.0020233
inclination: 74.0500°
perigee height: 756 km
apogee height: 785 km
right ascension of ascending node: 344.4026°
argument of perigee: 156.7521°
revolutions per day: 14.36263297
mean anomaly at epoch: 353.7780°
orbit number at epoch: 8574

The dashed part of the orbit path shows where the satellite is in the earth's shadow,  

DLR